This is the latest recevied weather packets stored in our database for station/object OM4MO-10. If no packets are shown the sender has not sent any weather packets the latest 10 day(s).
| Time | Temp. | Humidity | Pressure | Rain* | Wind** | Luminosity | Snow |
|---|---|---|---|---|---|---|---|
| 1788424086 | 21.67° C | 79% | 754.7 hPa | - | - | - | - |
| 1788423185 | 21.67° C | 79% | 754.7 hPa | - | - | - | - |
| 1788422284 | 20.56° C | 79% | 1020.5 hPa | - | - | - | - |
| 1788421384 | 21.67° C | 79% | 754.7 hPa | - | - | - | - |
| 1788420484 | 21.67° C | 79% | 754.7 hPa | - | - | - | - |
| 1788419584 | 21.67° C | 79% | 754.7 hPa | - | - | - | - |
| 1788418682 | 21.67° C | 79% | 754.7 hPa | - | - | - | - |
| 1788417781 | 21.67° C | 79% | 754.7 hPa | - | - | - | - |
| 1788416881 | 21.67° C | 79% | 754.7 hPa | - | - | - | - |
| 1788415980 | 15° C | 79% | 1022.1 hPa | - | - | - | - |
| 1788415080 | 21.67° C | 79% | 754.7 hPa | - | - | - | - |
| 1788414179 | 13.89° C | 79% | 1022.2 hPa | - | - | - | - |
| 1788413279 | 13.33° C | 79% | 1022.2 hPa | - | - | - | - |
| 1788412379 | 12.78° C | 79% | 1022 hPa | - | - | - | - |
| 1788411478 | 21.67° C | 79% | 754.7 hPa | - | - | - | - |
| 1788410577 | 12.78° C | 79% | 1021.8 hPa | - | - | - | - |
| 1788409677 | 13.33° C | 79% | 1022 hPa | - | - | - | - |
| 1788408777 | 13.33° C | 79% | 1021.6 hPa | - | - | - | - |
| 1788407877 | 13.33° C | 79% | 1021.5 hPa | - | - | - | - |
| 1788406977 | 13.89° C | 79% | 1021.8 hPa | - | - | - | - |
| 1788406077 | 21.67° C | 79% | 754.7 hPa | - | - | - | - |
| 1788405177 | 13.89° C | 79% | 1021.6 hPa | - | - | - | - |
| 1788404276 | 14.44° C | 79% | 1021.8 hPa | - | - | - | - |
| 1788403376 | 14.44° C | 79% | 1021.8 hPa | - | - | - | - |
| 1788402476 | 14.44° C | 79% | 1022 hPa | - | - | - | - |
* Rain since midnight (hover to see other rain measurements)
** Current wind speed in m/s (hover to see current wind gust speed)